Simultaneous Nadir Overpasses (SNOs) Predictions

Prediction of SNOs between FY3D and METOP-A Satellite Orbit:

Table of predicted SNOs for the next 14.0 days since TLE Epoch: 12/7/2019
Index Date (FY3D) Time (FY3D) Lat,Lon (FY3D) SZA (FY3D ) Date (METOP-A) Time (METOP-A) Lat,Lon (METOP-A) SZA (METOP-A ) Distance(km) Time Diff (sec)
1 12/20/2019 16:06:47 75.53, -75.72 99.24 12/20/2019 16:07:55 75.49, -73.24 99.07 69.18 68
2 12/20/2019 16:57:30 -75.49, 91.71 80.81 12/20/2019 16:58:39 -75.40, 93.81 81.01 59.51 69
3 12/20/2019 17:48:11 75.29,-100.36 98.97 12/20/2019 17:49:22 75.24, -99.34 98.85 29.26 71
4 12/20/2019 18:38:53 -75.20, 67.21 81.13 12/20/2019 18:40:06 -75.14, 67.72 81.23 15.93 73
5 12/20/2019 19:29:36 75.09,-125.15 98.75 12/20/2019 19:30:47 75.07,-125.15 98.71 2.16 71
6 12/20/2019 20:20:20 -75.10, 42.13 81.25 12/20/2019 20:21:29 -75.08, 42.19 81.29 3.32 69
7 12/20/2019 21:11:05 75.09,-150.51 98.74 12/20/2019 21:12:08 75.10,-150.41 98.74 3.28 63
8 12/20/2019 22:01:48 -75.05, 16.91 81.30 12/20/2019 22:02:51 -75.06, 16.79 81.30 3.55 63
9 12/20/2019 22:52:34 75.08,-175.86 98.74 12/20/2019 22:53:30 75.08,-175.80 98.72 1.69 56
10 12/20/2019 23:43:18 -75.09, -8.58 81.25 12/20/2019 23:44:12 -75.09, -8.47 81.28 3.32 54
11 12/21/2019 00:34:03 75.07, 158.78 98.73 12/21/2019 00:34:52 75.06, 158.80 98.71 1.49 49
12 12/21/2019 01:24:47 -75.09, -33.94 81.26 12/21/2019 01:25:34 -75.07, -33.86 81.29 3.03 47




NCC Satellite Simultaneous Nadir Overpasses (SNOs) Prediction Service
